Find Starlink 38038

NORAD ID: 100116 Int'l Des: 2026-166 Owner: SPXS Country: US Constellation: starlink operational

Aktuelle Ansicht

3D-Globus wird geladen...

About Starlink 38038

Starlink 38038 (NORAD 100116) is a starlink constellation satellite (v2 mini) launched Jul 21, 2026 by SPXS of US. with a mass of 575.00 kg.

Nächste Überflüge

Passes for default location (London). Set your location on the main map for personalized predictions.

Höhenverlauf

Loading altitude history...

Zweizeiliger Elementsatz

1 A0116U 26166R 26224.55089515 .00097007 00000-0 64337-3 0 9992
2 A0116 97.2839 241.0040 0001195 99.7102 260.4298 15.75208647 3473
Epoch: 12. Aug. 2026 • Age: 26 hours

Aktueller Status

Höhe 372.7 km
Apogäum / Perigäum N/A
Geschwindigkeit 7.68 km/s
Subsatellitenpunkt -82.54°S, 162.69°E
Startdatum 21. Juli 2026
Alter 22 days
Typ internet

Technische Details

Klassifizierung Payload
Masse 575.00 kg
Trockenmasse 530.00 kg
Gesamtmasse 575.00 kg
Länge 0.30 m
Durchmesser 4.10 m
Spannweite 29.00 m
Form Box + pan
Hersteller SPXS
Bus-Typ Starlink V2MO
Phasenstatus In Orbit
Besitzer/Staat SPXS/US

Most Searched